Current weather by "City, St" or "zip code"  
 
Advertise Here

Current Conditions: Mount Airy/Surry County Airport, NC

Fair


71.0 F

Last Updated on Jul 27 2021, 12:55 am EDT
Humidity: 98%
Wind Speed: N 0.0 mph
Barometer 30.04 in
Dewpoint: 70.3 F
Visibility: 10.00 mi
Precip: --
Heat Index: NA
Wind Chill: NA
Current conditions at:

Mount Airy/Surry County Airport, NC (KMWK)

Lat: 36.45675 Lon: 80.55483

Local Radar Image active severe weather and emergency alerts image image weather storm and storm spotter reports image weather observation monitoring service image
Local
Radar
Active
Alerts
Storm Reports Obs
Monitoring

Sign-up For Email & Text Message Weather Alert Notification Services


Advertise Here

Observation History for Mount Airy/Surry County Airport, NC


Time Wind
(mph)
Vis
(mi)
Weather Precip (in) Temperature (F) Relative
Humidity
Wind
Chill
(F)
Heat
Index
(F)
Pressure
Air Dwpt altimeter
(in)
sea level
(mb)
Rmks
12:55 am EDT N 0.0 10.00 Fair -- 71.0 70.3 98% NA NA 30.04 M
11:55 pm EDT N 0.0 10.00 Fair -- 73.0 71.2 96% NA NA 30.03 M
10:55 pm EDT N 0.0 10.00 Fair 00.01 73.0 71.8 95% NA NA 30.04 M
9:55 pm EDT S 3.5 10.00 Fair -- 74.0 72.0 92% NA NA 30.05 M
8:55 pm EDT N 0.0 10.00 Fair -- 76.0 72.1 88% NA NA 30.04 M
7:55 pm EDT N 0.0 10.00 Fair -- 77.0 72.1 86% NA NA 30.02 M
6:15 pm EDT N 0.0 10.00 Fair -- 77.0 70.9 81% NA NA 30.01 M
5:55 pm EDT N 3.5 10.00 Fair -- 77.0 70.2 80% NA NA 30.02 M
4:55 pm EDT N 0.0 10.00 Fair -- 77.0 69.4 78% NA NA 30.02 M
3:55 pm EDT N 6.9 3.00 Light Rain -- 72.0 67.5 86% NA NA 30.05 M
2:55 pm EDT NW 4.6 7.00 Fair -- 83.0 76.6 81% NA 92 30.03 M
1:35 pm EDT N 0.0 7.00 Partly Cloudy -- 84.0 73.2 69% NA 90 30.01 M
12:55 pm EDT SE 5.8 10.00 Fair -- 86.0 73.8 67% NA 94 30.02 M
11:55 am EDT N 0.0 10.00 Fair -- 83.0 73.0 72% NA 89 30.04 M
10:55 am EDT N 0.0 10.00 Partly Cloudy -- 81.0 73.9 80% NA 86 30.05 M
9:55 am EDT N 0.0 5.00 Fog/Mist -- 75.0 73.4 94% NA NA 30.05 M
8:55 am EDT N 0.0 2.50 Fog/Mist -- 73.0 72.7 98% NA NA 30.06 M
7:55 am EDT N 0.0 5.00 Fog/Mist -- 73.0 72.1 98% NA NA 30.05 M
6:55 am EDT N 0.0 5.00 Light Rain -- 73.0 71.8 98% NA NA 30.04 M
5:55 am EDT N 0.0 5.00 Fog/Mist -- 73.0 72.0 98% NA NA 30.02 M
4:55 am EDT N 0.0 7.00 Fair -- 73.0 72.0 96% NA NA 30.02 M
3:55 am EDT N 0.0 4.00 Fog/Mist -- 73.0 72.3 98% NA NA 30.02 M
2:55 am EDT N 0.0 5.00 Fog/Mist -- 74.0 72.9 98% NA NA 30.03 M
1:55 am EDT N 0.0 3.00 Fog/Mist -- 74.0 73.4 98% NA NA 30.04 M

Regional Weather Observation


Mount Airy/Surry County Airport, NC (KMWK)

Fair
71.0 F

Martinsville, VA (KMTV)

Fog/Mist
70.0 F

Winston Salem, Smith Reynolds Airport, NC (KINT)

Fair
74.0 F

North Wilkesboro, Wilkes County Airport, NC (KUKF)

Fog/Mist
72.0 F

Marion / Wytheville, VA (KMKJ)

Fog
65.0 F

Jefferson - Ashe County Airport, NC (KGEV)

Fair
65.0 F
Advertise Here

Advertise Here